Showing default

STARONE C4, 40733

Orbit data source: Space-Track

STARONE C4, 40733 is a payload satellite owned by Star One (BR) in GEO that was launched on Wed, 15 Jul 2015 UTC via an ARIANE 5ECA launch vehicle from the French Guiana (FRGUI). Payload-class satellites include a variety of spacecraft equipped with specific instruments for various scientific and technological missions. These include communications satellites like Starlink; space stations such as the ISS; scientific satellites like the Hubble; Earth observation satellites from companies like Planet Labs, Umbra, and HawkEye 360; GPS; miniature CubeSats for education and research; and military/defense satellites.

Loading next visibility...
Identifier
40733, 2015-034B
Orbit
GEO
Country
Flag of BRBR / BRAZ
Related business
Manufacturer
SS/Loral (MDA)
Mission
Operational Commercial Communications
Bus & Motor
LS-1300, R-4D
Mass
5,565 kg wet, ~3,500 kg dry
Launch date (UTC)
2015-07-15 (11 years ago)
Launch vehicle
ARIANE 5ECA
Launch site
French Guiana (FRGUI)
Object type
Payload
Rocket body
Debris
Shape & HBR
Box + 2 Pan, 13.1 m
Radar Cross Section
27.753 m², Large (>1 m²)

Expand to show TLE details & history
Last TLE update: 7 hours ago

TLE from 7 hours ago
0 STARONE C4
1 40733U 15034B   26106.70085389 -.00000258  00000-0  00000+0 0  9990
2 40733   0.0378 350.3769 0002571  22.7955  13.9789  1.00269574 39390
Epoch: 2026-04-16T16:49Z
TLE epoch observation values (Epoch: 2026-04-16T16:49:13.776Z)
Latitude
0.02105°
Longitude
-70.00193°
Altitude
35,776.124 km
Speed
3.075 km/s
True Right ascension
01h 48m 36s
True Declination
0° 01' 16"
Sunlit
Object was in daylight at epoch
Visualization orbit readout
Latitude
Unknown
Longitude
Unknown
Altitude
Unknown
Speed
Unknown
Apparent Right ascension
Unknown
Apparent Declination
Unknown
Sunlit
N/A
Visualization observer readout
Local Sidereal Time
06:10:55
Azimuth
Unknown
Elevation
Unknown
Doppler factor
Unknown
Orbital elements
Apogee altitude
35,799.126 km
Perigee altitude
35,777.444 km
Semi-major axis
42,166.422 km
Eccentricity
0.00026
Inclination
0.0378°
RAAN
350.3769°
Arg. of periapsis
22.7955°
True anomaly
13.98602°
Mean anomaly
13.9789°
Eccentric anomaly
13.98246°
Mean motion
0.25066 °/min
Orbital period
1,436.18 mins
BSTAR
0
Loading maneuver chart data...
Computing Atmospheric mass density...
Loading historical data...
Loading historical data...
Loading historical data...
Loading historical data...
Loading historical data...
Loading historical data...
Loading historical data...

Documentation

Showing up to 5 results
|